STARLINK-32696 (62310 NORAD) Tracking and Keplerian Element Data

This shows tracking and keplerian element data for the satellite.

Feedback or suggestion? Click here.




ElementValue
Catalog62310
NameSTARLINK-32696
Epoch Orbit827
Epoch Day34.95208814
Epoch Year2025
RAAN250.4043
Inclination53.1581
Eccentricity0.0001053
Argument of Perigee73.1251
Mean Anonmoly286.987
Mean Motion15.39613626
Decay Rate5.82E-06
L11 62310U 24239K 25034.95208814 .00000582 00000+0 24525-4 0 9999
L22 62310 53.1581 250.4043 0001053 73.1251 286.9870 15.39613626 8272



Live tracking and technical data element details for STARLINK-32696 (NORAD 62310). STARLINK-32696 can be tracked NOW for your location showing map with azimuth and elevation plus other details from your city location.







IsCatalogInMostPopularTable: catalog: 62310, numindb: 13
Update: records affected: 1



GetName: 62310 STARLINK-32696

Hit Count: updated at: Sun, 18 May 2025 21:53:48 GMT